| time (UTC) | temp F | wind direction | speed knots | gust knots | rain 1hr in | rain 24hr in | rain mn in | humidity % | barometer mb |
| 20260510164315 | 85 | 72 | 2.6 | 5.2 | 0.00 | 0.00 | 0.00 | 75 | 1011.0 |
| 20260510163815 | 85 | 108 | 1.7 | 6.1 | 0.00 | 0.00 | 0.00 | 75 | 1010.9 |
| 20260510163315 | 85 | 83 | 2.6 | 7.0 | 0.00 | 0.00 | 0.00 | 75 | 1010.8 |
| 20260510162312 | 84 | 116 | 1.7 | 4.3 | 0.00 | 0.00 | 0.00 | 75 | 1010.8 |
| 20260510161813 | 84 | 88 | 1.7 | 4.3 | 0.00 | 0.00 | 0.00 | 77 | 1010.9 |
| 20260510160813 | 83 | 110 | 1.7 | 5.2 | 0.00 | 0.00 | 0.00 | 79 | 1010.8 |
| 20260510160310 | 84 | 62 | 1.7 | 5.2 | 0.00 | 0.00 | 0.00 | 77 | 1010.9 |
| 20260510155811 | 83 | 349 | 0.9 | 4.3 | 0.00 | 0.00 | 0.00 | 79 | 1010.9 |
| 20260510155310 | 83 | 138 | 1.7 | 5.2 | 0.00 | 0.00 | 0.00 | 80 | 1010.9 |
| 20260510154307 | 82 | 89 | 1.7 | 5.2 | 0.00 | 0.00 | 0.00 | 82 | 1010.9 |
| 20260510153808 | 83 | 90 | 1.7 | 5.2 | 0.00 | 0.00 | 0.00 | 80 | 1010.9 |
| 20260510153307 | 83 | 121 | 1.7 | 5.2 | 0.00 | 0.00 | 0.00 | 81 | 1010.8 |
| 20260510152308 | 83 | 0 | 1.7 | 4.3 | 0.00 | 0.00 | 0.00 | 80 | 1010.8 |
| 20260510151807 | 83 | 155 | 0.9 | 5.2 | 0.00 | 0.00 | 0.00 | 81 | 1010.8 |
| 20260510151307 | 83 | 0 | 0.9 | 5.2 | 0.00 | 0.00 | 0.00 | 80 | 1010.7 |
| 20260510150807 | 82 | 119 | 0.9 | 4.3 | 0.00 | 0.00 | 0.00 | 82 | 1010.7 |
| 20260510150304 | 82 | 182 | 0.9 | 4.3 | 0.00 | 0.00 | 0.00 | 81 | 1010.8 |
| 20260510145802 | 81 | 115 | 0.9 | 3.5 | 0.00 | 0.00 | 0.00 | 83 | 1010.7 |
| 20260510145301 | 80 | 232 | 1.7 | 5.2 | 0.00 | 0.00 | 0.00 | 85 | 1010.6 |
| 20260510144802 | 80 | 153 | 1.7 | 5.2 | 0.00 | 0.00 | 0.00 | 85 | 1010.5 |
| 20260510144302 | 80 | 0 | 1.7 | 7.8 | 0.00 | 0.00 | 0.00 | 86 | 1010.4 |
| 20260510143759 | 80 | 224 | 1.7 | 7.8 | 0.00 | 0.00 | 0.00 | 87 | 1010.5 |
| 20260510141759 | 80 | 143 | 1.7 | 3.5 | 0.00 | 0.00 | 0.00 | 87 | 1010.4 |
| 20260510141259 | 79 | 140 | 1.7 | 3.5 | 0.00 | 0.00 | 0.00 | 90 | 1010.5 |
| 20260510140759 | 78 | 140 | 2.6 | 5.2 | 0.00 | 0.00 | 0.00 | 92 | 1010.4 |
| 20260510140300 | 78 | 179 | 2.6 | 6.1 | 0.00 | 0.00 | 0.00 | 93 | 1010.5 |
| 20260510135800 | 78 | 175 | 2.6 | 6.1 | 0.00 | 0.00 | 0.00 | 93 | 1010.5 |
| 20260510135257 | 78 | 127 | 2.6 | 5.2 | 0.00 | 0.00 | 0.00 | 93 | 1010.6 |
| 20260510134756 | 78 | 149 | 3.5 | 6.1 | 0.00 | 0.00 | 0.00 | 93 | 1010.6 |
| 20260510134301 | 78 | 164 | 5.2 | 6.1 | 0.00 | 0.00 | 0.00 | 94 | 1010.5 |
| 20260510133759 | 77 | 149 | 5.2 | 6.1 | 0.00 | 0.00 | 0.00 | 95 | 1010.5 |
| 20260510133301 | 76 | 151 | 4.3 | 5.2 | 0.00 | 0.00 | 0.00 | 96 | 1010.4 |
| 20260510132759 | 76 | 162 | 4.3 | 5.2 | 0.00 | 0.00 | 0.00 | 96 | 1010.5 |
| 20260510132305 | 76 | 114 | 3.5 | 5.2 | 0.00 | 0.00 | 0.00 | 96 | 1010.5 |
| 20260510131301 | 76 | 166 | 4.3 | 6.1 | 0.00 | 0.00 | 0.00 | 97 | 1010.5 |
| 20260510130758 | 76 | 169 | 4.3 | 6.1 | 0.00 | 0.00 | 0.00 | 97 | 1010.3 |
| 20260510130302 | 75 | 156 | 3.5 | 5.2 | 0.00 | 0.00 | 0.00 | 98 | 1010.2 |
| 20260510125759 | 75 | 156 | 3.5 | 5.2 | 0.00 | 0.00 | 0.00 | 98 | 1010.1 |
| 20260510125301 | 74 | 152 | 3.5 | 5.2 | 0.00 | 0.00 | 0.00 | 98 | 1010.0 |
| 20260510124759 | 74 | 153 | 3.5 | 5.2 | 0.00 | 0.00 | 0.00 | 98 | 1009.9 |
| 20260510124302 | 74 | 152 | 3.5 | 3.5 | 0.00 | 0.00 | 0.00 | 99 | 1009.9 |
| 20260510123759 | 74 | 159 | 3.5 | 3.5 | 0.00 | 0.00 | 0.00 | 99 | 1009.9 |
| 20260510123302 | 73 | 154 | 3.5 | 4.3 | 0.00 | 0.00 | 0.00 | 99 | 1009.8 |
| 20260510122759 | 73 | 152 | 3.5 | 5.2 | 0.00 | 0.00 | 0.00 | 99 | 1009.8 |
| 20260510122251 | 73 | 152 | 4.3 | 5.2 | 0.00 | 0.00 | 0.00 | 99 | 1009.8 |
| 20260510121747 | 73 | 143 | 4.3 | 4.3 | 0.00 | 0.00 | 0.00 | 99 | 1009.8 |
| 20260510120248 | 73 | 145 | 3.5 | 4.3 | 0.00 | 0.00 | 0.00 | 99 | 1009.7 |
| 20260510115744 | 72 | 148 | 3.5 | 4.3 | 0.00 | 0.00 | 0.00 | 99 | 1009.6 |
| 20260510115248 | 72 | 158 | 3.5 | 3.5 | 0.00 | 0.00 | 0.00 | 99 | 1009.6 |
| 20260510114745 | 72 | 139 | 3.5 | 3.5 | 0.00 | 0.00 | 0.00 | 98 | 1009.5 |
| 20260510114248 | 72 | 136 | 3.5 | 3.5 | 0.00 | 0.00 | 0.00 | 99 | 1009.5 |
| 20260510113249 | 72 | 161 | 2.6 | 3.5 | 0.00 | 0.00 | 0.00 | 98 | 1009.5 |
| 20260510112745 | 72 | 144 | 2.6 | 3.5 | 0.00 | 0.00 | 0.00 | 98 | 1009.5 |
| 20260510112249 | 72 | 146 | 2.6 | 3.5 | 0.00 | 0.00 | 0.00 | 98 | 1009.5 |
| 20260510111745 | 72 | 154 | 3.5 | 4.3 | 0.00 | 0.00 | 0.00 | 98 | 1009.4 |
| 20260510111249 | 71 | 152 | 3.5 | 4.3 | 0.00 | 0.00 | 0.00 | 98 | 1009.4 |
| 20260510110730 | 71 | 145 | 2.6 | 3.5 | 0.00 | 0.00 | 0.00 | 98 | 1009.3 |
| 20260510105731 | 71 | 139 | 2.6 | 3.5 | 0.00 | 0.00 | 0.00 | 98 | 1009.4 |
| 20260510104731 | 71 | 140 | 2.6 | 3.5 | 0.00 | 0.00 | 0.00 | 98 | 1009.3 |
| 20260510104234 | 71 | 130 | 2.6 | 3.5 | 0.00 | 0.00 | 0.00 | 98 | 1009.2 |
| 20260510103731 | 71 | 148 | 2.6 | 3.5 | 0.00 | 0.00 | 0.00 | 98 | 1009.0 |
| 20260510103235 | 71 | 143 | 1.7 | 3.5 | 0.00 | 0.00 | 0.00 | 98 | 1009.1 |
| 20260510102731 | 71 | 146 | 1.7 | 3.5 | 0.00 | 0.00 | 0.00 | 98 | 1009.1 |
| 20260510102235 | 71 | 100 | 1.7 | 2.6 | 0.00 | 0.00 | 0.00 | 98 | 1009.2 |
| 20260510101728 | 71 | 146 | 2.6 | 3.5 | 0.00 | 0.00 | 0.00 | 98 | 1009.2 |
| 20260510101233 | 71 | 165 | 1.7 | 3.5 | 0.00 | 0.00 | 0.00 | 98 | 1009.2 |
| 20260510100716 | 71 | 140 | 1.7 | 2.6 | 0.00 | 0.00 | 0.00 | 98 | 1009.2 |
| 20260510095715 | 71 | 144 | 1.7 | 2.6 | 0.00 | 0.00 | 0.00 | 98 | 1009.2 |
| 20260510095215 | 71 | 146 | 1.7 | 2.6 | 0.00 | 0.00 | 0.00 | 98 | 1009.1 |
| 20260510094714 | 71 | 145 | 1.7 | 1.7 | 0.00 | 0.00 | 0.00 | 98 | 1009.1 |
| 20260510093715 | 71 | 152 | 1.7 | 3.5 | 0.00 | 0.00 | 0.00 | 97 | 1009.0 |
| 20260510093215 | 71 | 286 | 2.6 | 3.5 | 0.00 | 0.00 | 0.00 | 97 | 1009.1 |
| 20260510092715 | 71 | 154 | 2.6 | 3.5 | 0.00 | 0.00 | 0.00 | 97 | 1009.2 |
| 20260510092201 | 71 | 148 | 1.7 | 3.5 | 0.00 | 0.00 | 0.00 | 97 | 1009.2 |
| 20260510091701 | 71 | 141 | 1.7 | 2.6 | 0.00 | 0.00 | 0.00 | 97 | 1009.3 |
| 20260510091201 | 71 | 124 | 0.9 | 1.7 | 0.00 | 0.00 | 0.00 | 97 | 1009.3 |
| 20260510090701 | 71 | 103 | 0.9 | 1.7 | 0.00 | 0.00 | 0.00 | 97 | 1009.2 |
| 20260510090201 | 71 | 86 | 0.9 | 1.7 | 0.00 | 0.00 | 0.00 | 97 | 1009.2 |
| 20260510085701 | 71 | 144 | 0.9 | 2.6 | 0.00 | 0.00 | 0.00 | 97 | 1009.1 |
| 20260510085201 | 71 | 142 | 1.7 | 2.6 | 0.00 | 0.00 | 0.00 | 97 | 1009.1 |
| 20260510084701 | 71 | 164 | 1.7 | 2.6 | 0.00 | 0.00 | 0.00 | 97 | 1009.1 |
| 20260510084201 | 71 | 190 | 1.7 | 2.6 | 0.00 | 0.00 | 0.00 | 97 | 1009.1 |
| 20260510083701 | 71 | 224 | 1.7 | 2.6 | 0.00 | 0.00 | 0.00 | 97 | 1009.1 |
| 20260510083202 | 72 | 185 | 1.7 | 2.6 | 0.00 | 0.00 | 0.00 | 96 | 1009.1 |
| 20260510082701 | 72 | 209 | 0.9 | 2.6 | 0.00 | 0.00 | 0.00 | 96 | 1009.0 |
| 20260510082202 | 72 | 183 | 0.9 | 3.5 | 0.00 | 0.00 | 0.00 | 96 | 1009.2 |
| 20260510081701 | 72 | 188 | 1.7 | 3.5 | 0.00 | 0.00 | 0.00 | 96 | 1009.2 |
| 20260510081159 | 73 | 187 | 1.7 | 3.5 | 0.00 | 0.00 | 0.00 | 96 | 1009.2 |
| 20260510080159 | 73 | 176 | 1.7 | 2.6 | 0.00 | 0.00 | 0.00 | 96 | 1009.4 |
| 20260510075159 | 72 | 104 | 1.7 | 1.7 | 0.00 | 0.00 | 0.00 | 96 | 1009.6 |
| 20260510074659 | 72 | 158 | 0.9 | 1.7 | 0.00 | 0.00 | 0.00 | 96 | 1009.7 |
| 20260510074159 | 72 | 70 | 0.9 | 2.6 | 0.00 | 0.00 | 0.00 | 96 | 1009.7 |
| 20260510073659 | 72 | 168 | 0.9 | 2.6 | 0.00 | 0.00 | 0.00 | 96 | 1009.7 |
| 20260510073200 | 72 | 148 | 0.9 | 2.6 | 0.00 | 0.00 | 0.00 | 96 | 1009.8 |
| 20260510072200 | 72 | 157 | 0.9 | 2.6 | 0.00 | 0.00 | 0.00 | 96 | 1009.8 |
| 20260510071700 | 71 | 102 | 0.9 | 1.7 | 0.00 | 0.00 | 0.00 | 96 | 1009.8 |
| 20260510071200 | 71 | 164 | 0.9 | 2.6 | 0.00 | 0.00 | 0.00 | 96 | 1009.7 |
| 20260510070156 | 71 | 142 | 0.9 | 1.7 | 0.00 | 0.00 | 0.00 | 96 | 1009.7 |
| 20260510065657 | 71 | 177 | 0.9 | 1.7 | 0.00 | 0.00 | 0.00 | 96 | 1009.7 |
| 20260510065157 | 71 | 163 | 0.9 | 1.7 | 0.00 | 0.00 | 0.00 | 96 | 1009.7 |
| 20260510064657 | 71 | 0 | 0.9 | 1.7 | 0.00 | 0.00 | 0.00 | 96 | 1009.7 |
| 20260510064154 | 71 | 104 | 0.9 | 1.7 | 0.00 | 0.00 | 0.00 | 96 | 1009.7 |
| 20260510063155 | 71 | 108 | 0.9 | 2.6 | 0.00 | 0.00 | 0.00 | 96 | 1009.5 |
| 20260510062654 | 71 | 94 | 0.9 | 2.6 | 0.00 | 0.00 | 0.00 | 96 | 1009.3 |
| 20260510062155 | 71 | 204 | 0.9 | 1.7 | 0.00 | 0.00 | 0.00 | 95 | 1009.3 |
| 20260510061655 | 71 | 198 | 0.9 | 1.7 | 0.00 | 0.00 | 0.00 | 95 | 1009.3 |
| 20260510061154 | 71 | 182 | 0.9 | 1.7 | 0.00 | 0.00 | 0.00 | 95 | 1009.4 |
| 20260510060654 | 71 | 0 | 0.9 | 1.7 | 0.00 | 0.00 | 0.00 | 95 | 1009.5 |
| 20260510060155 | 71 | 168 | 0.9 | 1.7 | 0.00 | 0.00 | 0.00 | 95 | 1009.5 |
| 20260510055654 | 71 | 192 | 0.9 | 2.6 | 0.00 | 0.00 | 0.00 | 95 | 1009.5 |
| 20260510055152 | 72 | 168 | 0.9 | 2.6 | 0.00 | 0.00 | 0.00 | 95 | 1009.5 |
| 20260510054651 | 72 | 225 | 0.9 | 2.6 | 0.00 | 0.00 | 0.00 | 95 | 1009.5 |
| 20260510053651 | 72 | 210 | 0.9 | 2.6 | 0.00 | 0.00 | 0.00 | 94 | 1009.5 |
| 20260510052649 | 73 | 162 | 0.9 | 2.6 | 0.00 | 0.00 | 0.00 | 93 | 1009.6 |
| 20260510052150 | 73 | 175 | 1.7 | 2.6 | 0.00 | 0.00 | 0.00 | 93 | 1009.5 |
| 20260510051649 | 73 | 177 | 0.9 | 2.6 | 0.00 | 0.00 | 0.00 | 92 | 1009.6 |
| 20260510051148 | 73 | 0 | 0.0 | 1.7 | 0.00 | 0.00 | 0.00 | 91 | 1009.7 |
| 20260510045649 | 74 | 0 | 0.0 | 1.7 | 0.00 | 0.00 | 0.61 | 90 | 1009.7 |
| 20260510045150 | 74 | 124 | 0.0 | 1.7 | 0.00 | 0.00 | 0.61 | 90 | 1009.7 |
| 20260510044650 | 74 | 108 | 0.0 | 1.7 | 0.00 | 0.00 | 0.61 | 89 | 1009.6 |
| 20260510044149 | 75 | 0 | 0.0 | 1.7 | 0.00 | 0.00 | 0.61 | 89 | 1009.6 |
| 20260510043649 | 75 | 0 | 0.0 | 2.6 | 0.00 | 0.00 | 0.61 | 89 | 1009.5 |
| 20260510043147 | 75 | 140 | 0.0 | 2.6 | 0.00 | 0.00 | 0.61 | 89 | 1009.4 |
| 20260510042647 | 75 | 157 | 0.0 | 2.6 | 0.00 | 0.00 | 0.61 | 89 | 1009.4 |
| 20260510041144 | 75 | 0 | 0.0 | 1.7 | 0.00 | 0.00 | 0.61 | 88 | 1009.2 |
| 20260510040144 | 75 | 0 | 0.9 | 2.6 | 0.00 | 0.00 | 0.61 | 87 | 1009.1 |
| 20260510035644 | 75 | 108 | 0.0 | 2.6 | 0.00 | 0.00 | 0.61 | 87 | 1009.1 |
| 20260510035144 | 76 | 86 | 0.0 | 1.7 | 0.00 | 0.00 | 0.61 | 87 | 1008.9 |
| 20260510034644 | 76 | 0 | 0.0 | 1.7 | 0.00 | 0.00 | 0.61 | 86 | 1008.8 |
| 20260510033644 | 76 | 0 | 0.9 | 2.6 | 0.00 | 0.00 | 0.61 | 85 | 1008.8 |
| 20260510033145 | 76 | 93 | 0.9 | 4.3 | 0.00 | 0.00 | 0.61 | 85 | 1008.8 |
| 20260510032641 | 76 | 106 | 1.7 | 4.3 | 0.00 | 0.00 | 0.61 | 85 | 1008.5 |
| 20260510032141 | 76 | 174 | 0.9 | 3.5 | 0.00 | 0.00 | 0.61 | 85 | 1008.4 |
| 20260510031642 | 77 | 200 | 0.0 | 2.6 | 0.00 | 0.00 | 0.61 | 84 | 1008.4 |
| 20260510031142 | 77 | 0 | 0.9 | 3.5 | 0.00 | 0.00 | 0.61 | 83 | 1008.4 |
| 20260510030641 | 77 | 0 | 0.9 | 3.5 | 0.00 | 0.00 | 0.61 | 82 | 1008.3 |
| 20260510030139 | 77 | 191 | 0.9 | 3.5 | 0.00 | 0.00 | 0.61 | 82 | 1008.2 |
| 20260510025638 | 77 | 0 | 0.9 | 2.6 | 0.00 | 0.00 | 0.61 | 81 | 1008.2 |
| 20260510025139 | 77 | 187 | 0.9 | 2.6 | 0.00 | 0.00 | 0.61 | 80 | 1008.2 |
| 20260510024639 | 78 | 0 | 0.9 | 4.3 | 0.00 | 0.00 | 0.61 | 80 | 1008.2 |
| 20260510024140 | 78 | 0 | 0.9 | 4.3 | 0.00 | 0.00 | 0.61 | 79 | 1008.2 |
| 20260510023640 | 78 | 131 | 0.9 | 3.5 | 0.00 | 0.00 | 0.61 | 78 | 1008.1 |
| 20260510022639 | 78 | 126 | 0.9 | 2.6 | 0.00 | 0.00 | 0.61 | 76 | 1008.0 |
| 20260510022139 | 78 | 122 | 0.9 | 2.6 | 0.00 | 0.00 | 0.61 | 76 | 1008.0 |
| 20260510021640 | 78 | 0 | 0.9 | 3.5 | 0.00 | 0.00 | 0.61 | 75 | 1007.9 |
| 20260510021142 | 79 | 191 | 0.9 | 3.5 | 0.00 | 0.00 | 0.61 | 75 | 1007.9 |
| 20260510020638 | 79 | 119 | 0.9 | 4.3 | 0.00 | 0.00 | 0.61 | 74 | 1007.9 |
| 20260510020153 | 79 | 335 | 1.7 | 4.3 | 0.00 | 0.00 | 0.61 | 73 | 1007.9 |
| 20260510015637 | 79 | 300 | 1.7 | 3.5 | 0.00 | 0.00 | 0.61 | 73 | 1007.8 |
| 20260510015137 | 80 | 146 | 0.9 | 3.5 | 0.00 | 0.00 | 0.61 | 73 | 1007.7 |
| 20260510014634 | 80 | 64 | 0.9 | 3.5 | 0.00 | 0.00 | 0.61 | 72 | 1007.6 |
| 20260510013635 | 80 | 86 | 0.9 | 5.2 | 0.00 | 0.00 | 0.61 | 71 | 1007.5 |
| 20260510013139 | 81 | 97 | 1.7 | 5.2 | 0.00 | 0.00 | 0.61 | 70 | 1007.4 |
| 20260510012635 | 81 | 126 | 1.7 | 5.2 | 0.00 | 0.00 | 0.61 | 70 | 1007.3 |
| 20260510012138 | 82 | 97 | 1.7 | 4.3 | 0.00 | 0.00 | 0.61 | 69 | 1007.3 |
| 20260510011635 | 82 | 158 | 1.7 | 4.3 | 0.00 | 0.00 | 0.61 | 67 | 1007.2 |
| 20260510011137 | 82 | 69 | 1.7 | 6.1 | 0.00 | 0.00 | 0.61 | 65 | 1007.3 |
| 20260510010634 | 83 | 126 | 2.6 | 7.0 | 0.00 | 0.00 | 0.61 | 64 | 1007.2 |
| 20260510010136 | 83 | 119 | 2.6 | 7.0 | 0.00 | 0.00 | 0.61 | 64 | 1007.1 |
| 20260510005635 | 83 | 155 | 1.7 | 6.1 | 0.00 | 0.00 | 0.61 | 65 | 1007.1 |
| 20260510005136 | 83 | 110 | 2.6 | 6.1 | 0.00 | 0.00 | 0.61 | 65 | 1007.1 |
| 20260510004131 | 84 | 96 | 2.6 | 6.1 | 0.00 | 0.00 | 0.61 | 64 | 1007.0 |
| 20260510003132 | 84 | 135 | 2.6 | 7.0 | 0.00 | 0.00 | 0.61 | 62 | 1007.0 |
| 20260510002632 | 84 | 126 | 3.5 | 7.8 | 0.00 | 0.00 | 0.61 | 62 | 1007.0 |
| 20260510001632 | 85 | 138 | 2.6 | 6.1 | 0.00 | 0.00 | 0.61 | 64 | 1007.0 |
| 20260510001132 | 85 | 142 | 2.6 | 6.1 | 0.00 | 0.00 | 0.61 | 66 | 1007.0 |
| 20260510000632 | 85 | 135 | 2.6 | 7.0 | 0.00 | 0.00 | 0.61 | 65 | 1007.0 |
| 20260510000132 | 85 | 218 | 3.5 | 7.8 | 0.00 | 0.00 | 0.61 | 65 | 1007.0 |
| 20260509235633 | 86 | 120 | 3.5 | 7.8 | 0.00 | 0.00 | 0.61 | 64 | 1006.9 |
| 20260509235134 | 86 | 78 | 3.5 | 9.6 | 0.00 | 0.00 | 0.61 | 64 | 1006.9 |
| 20260509234131 | 87 | 82 | 3.5 | 8.7 | 0.00 | 0.00 | 0.61 | 65 | 1006.9 |
| 20260509233630 | 87 | 114 | 3.5 | 8.7 | 0.00 | 0.00 | 0.61 | 62 | 1006.9 |
| 20260509233127 | 87 | 105 | 3.5 | 7.8 | 0.00 | 0.00 | 0.61 | 63 | 1006.9 |
| 20260509232126 | 87 | 127 | 3.5 | 8.7 | 0.00 | 0.00 | 0.61 | 63 | 1006.9 |
| 20260509231627 | 87 | 86 | 3.5 | 7.0 | 0.00 | 0.00 | 0.61 | 62 | 1006.8 |
| 20260509231128 | 87 | 130 | 3.5 | 7.8 | 0.00 | 0.00 | 0.61 | 62 | 1006.9 |
| 20260509230632 | 87 | 76 | 4.3 | 7.8 | 0.00 | 0.00 | 0.61 | 63 | 1006.8 |
| 20260509225127 | 87 | 88 | 4.3 | 8.7 | 0.00 | 0.00 | 0.61 | 62 | 1006.8 |
| 20260509224628 | 88 | 93 | 3.5 | 7.8 | 0.00 | 0.00 | 0.61 | 62 | 1006.9 |
| 20260509224125 | 88 | 51 | 3.5 | 7.0 | 0.00 | 0.00 | 0.61 | 62 | 1006.8 |
| 20260509223621 | 89 | 127 | 3.5 | 8.7 | 0.00 | 0.00 | 0.61 | 62 | 1006.7 |
| 20260509223122 | 89 | 113 | 1.7 | 8.7 | 0.00 | 0.00 | 0.61 | 61 | 1006.7 |
| 20260509222119 | 90 | 145 | 0.9 | 3.5 | 0.00 | 0.00 | 0.61 | 58 | 1006.7 |
| 20260509221618 | 91 | 51 | 1.7 | 4.3 | 0.00 | 0.00 | 0.61 | 55 | 1006.7 |
| 20260509221120 | 90 | 201 | 1.7 | 7.0 | 0.00 | 0.00 | 0.61 | 58 | 1006.7 |
| 20260509220619 | 91 | 212 | 2.6 | 7.0 | 0.00 | 0.00 | 0.61 | 56 | 1006.7 |
| 20260509220120 | 91 | 74 | 1.7 | 7.0 | 0.00 | 0.00 | 0.61 | 57 | 1006.9 |
| 20260509215619 | 91 | 183 | 0.9 | 4.3 | 0.00 | 0.00 | 0.61 | 55 | 1006.9 |
| 20260509215121 | 90 | 274 | 1.7 | 2.6 | 0.00 | 0.00 | 0.61 | 57 | 1006.9 |
| 20260509214619 | 89 | 113 | 1.7 | 3.5 | 0.00 | 0.00 | 0.61 | 59 | 1006.8 |
| 20260509214121 | 89 | 168 | 1.7 | 5.2 | 0.00 | 0.00 | 0.61 | 59 | 1006.9 |
| 20260509213619 | 89 | 141 | 1.7 | 5.2 | 0.00 | 0.00 | 0.61 | 60 | 1007.0 |
| 20260509213121 | 90 | 94 | 1.7 | 5.2 | 0.00 | 0.00 | 0.61 | 59 | 1006.9 |
| 20260509212620 | 89 | 172 | 1.7 | 6.1 | 0.00 | 0.00 | 0.61 | 60 | 1006.9 |
| 20260509212119 | 89 | 219 | 1.7 | 6.1 | 0.00 | 0.00 | 0.61 | 60 | 1007.0 |
| 20260509211116 | 90 | 258 | 0.9 | 4.3 | 0.00 | 0.00 | 0.61 | 60 | 1007.2 |
| 20260509210116 | 90 | 188 | 2.6 | 6.1 | 0.00 | 0.00 | 0.61 | 59 | 1007.2 |
| 20260509205614 | 89 | 165 | 2.6 | 6.1 | 0.00 | 0.00 | 0.61 | 59 | 1007.2 |
| 20260509205114 | 90 | 180 | 2.6 | 6.1 | 0.00 | 0.00 | 0.61 | 58 | 1007.2 |
| 20260509204614 | 90 | 203 | 1.7 | 6.1 | 0.00 | 0.00 | 0.61 | 60 | 1007.2 |
| 20260509204113 | 90 | 248 | 1.7 | 4.3 | 0.00 | 0.00 | 0.61 | 58 | 1007.2 |
| 20260509203614 | 90 | 45 | 1.7 | 4.3 | 0.00 | 0.00 | 0.61 | 56 | 1007.3 |
| 20260509203115 | 90 | 243 | 1.7 | 4.3 | 0.00 | 0.00 | 0.61 | 58 | 1007.3 |
| 20260509202614 | 90 | 269 | 1.7 | 4.3 | 0.00 | 0.00 | 0.61 | 60 | 1007.3 |
| 20260509202114 | 90 | 227 | 1.7 | 4.3 | 0.00 | 0.00 | 0.61 | 60 | 1007.4 |
| 20260509201114 | 90 | 147 | 1.7 | 3.5 | 0.00 | 0.00 | 0.61 | 61 | 1007.6 |
| 20260509200612 | 89 | 242 | 2.6 | 7.8 | 0.00 | 0.00 | 0.61 | 60 | 1007.5 |
| 20260509200112 | 89 | 227 | 2.6 | 7.8 | 0.00 | 0.00 | 0.61 | 61 | 1007.6 |
| 20260509195609 | 89 | 192 | 2.6 | 7.0 | 0.00 | 0.00 | 0.61 | 62 | 1007.6 |
| 20260509195109 | 89 | 171 | 1.7 | 5.2 | 0.00 | 0.00 | 0.61 | 59 | 1007.6 |
| 20260509194608 | 89 | 0 | 2.6 | 7.0 | 0.00 | 0.00 | 0.61 | 60 | 1007.7 |
| 20260509194106 | 89 | 207 | 2.6 | 7.0 | 0.00 | 0.00 | 0.61 | 61 | 1007.7 |
| 20260509193605 | 88 | 182 | 2.6 | 4.3 | 0.00 | 0.00 | 0.61 | 60 | 1007.7 |
| 20260509193106 | 88 | 237 | 2.6 | 7.0 | 0.00 | 0.00 | 0.61 | 61 | 1007.7 |
| 20260509192606 | 87 | 251 | 2.6 | 7.0 | 0.00 | 0.00 | 0.61 | 62 | 1007.7 |
| 20260509192106 | 87 | 240 | 2.6 | 7.0 | 0.00 | 0.00 | 0.61 | 62 | 1007.7 |
| 20260509191607 | 87 | 147 | 3.5 | 8.7 | 0.00 | 0.00 | 0.61 | 61 | 1007.8 |
| 20260509191106 | 86 | 225 | 2.6 | 8.7 | 0.00 | 0.00 | 0.61 | 63 | 1007.8 |
| 20260509190606 | 86 | 198 | 1.7 | 5.2 | 0.00 | 0.00 | 0.61 | 65 | 1007.8 |
| 20260509190106 | 86 | 259 | 2.6 | 7.8 | 0.00 | 0.00 | 0.61 | 65 | 1007.8 |
| 20260509185606 | 85 | 248 | 3.5 | 7.8 | 0.00 | 0.00 | 0.61 | 66 | 1007.9 |
| 20260509184103 | 86 | 235 | 2.6 | 6.1 | 0.00 | 0.00 | 0.61 | 64 | 1008.0 |
| 20260509183604 | 86 | 245 | 2.6 | 6.1 | 0.00 | 0.00 | 0.61 | 64 | 1008.0 |
| 20260509183103 | 86 | 229 | 1.7 | 7.8 | 0.00 | 0.00 | 0.61 | 63 | 1008.1 |
| 20260509182605 | 86 | 41 | 2.6 | 7.8 | 0.00 | 0.00 | 0.61 | 64 | 1008.2 |
| 20260509182104 | 86 | 228 | 2.6 | 6.1 | 0.00 | 0.00 | 0.61 | 66 | 1008.3 |
| 20260509181604 | 86 | 255 | 2.6 | 6.1 | 0.00 | 0.00 | 0.61 | 65 | 1008.3 |
| 20260509181104 | 86 | 263 | 1.7 | 5.2 | 0.00 | 0.00 | 0.61 | 62 | 1008.3 |
| 20260509180604 | 86 | 159 | 1.7 | 4.3 | 0.00 | 0.00 | 0.61 | 62 | 1008.4 |
| 20260509180104 | 86 | 63 | 0.9 | 3.5 | 0.00 | 0.00 | 0.61 | 64 | 1008.5 |
| 20260509175604 | 86 | 246 | 0.9 | 3.5 | 0.00 | 0.00 | 0.61 | 64 | 1008.7 |
| 20260509175104 | 85 | 135 | 1.7 | 4.3 | 0.00 | 0.00 | 0.61 | 62 | 1008.6 |
| 20260509174604 | 84 | 219 | 1.7 | 5.2 | 0.00 | 0.00 | 0.61 | 63 | 1008.6 |
| 20260509174104 | 84 | 277 | 1.7 | 5.2 | 0.00 | 0.00 | 0.61 | 65 | 1008.7 |
| 20260509173604 | 84 | 111 | 1.7 | 3.5 | 0.00 | 0.00 | 0.61 | 65 | 1008.6 |
| 20260509172101 | 83 | 186 | 1.7 | 3.5 | 0.00 | 0.00 | 0.61 | 69 | 1008.7 |
| 20260509171559 | 82 | 240 | 1.7 | 4.3 | 0.00 | 0.00 | 0.61 | 70 | 1008.8 |
| 20260509171059 | 83 | 269 | 1.7 | 5.2 | 0.00 | 0.00 | 0.61 | 69 | 1008.9 |
| 20260509170100 | 82 | 177 | 2.6 | 6.1 | 0.00 | 0.00 | 0.61 | 72 | 1009.1 |
| 20260509165059 | 81 | 315 | 1.7 | 5.2 | 0.00 | 0.00 | 0.61 | 70 | 1009.1 |